星链-30258 (STARLINK-30258 )

导读

STARLINK-30258是美国星链计划的低轨互联网卫星,于2023年8月11日发射入轨,隶属于SpaceX打造的星链星座组网卫星之一。该卫星运行在近地轨道,主要为全球提供高速宽带互联网服务,尤其服务偏远地区、海上、航空等场景,是星链大规模组网进程中新补充的卫星节点,延续了星链星座可覆盖全球的服务特点。

Basic Information
目录编号:
57608
目录名称:
STARLINK-30258
国际标识:
2023-119G
轨道中心:
EARTH
卫星名称:
星链-30258
卫星全名:
星链-30258 (STARLINK-30258 )
卫星状态:
在轨 (已飞行1127 天)
发射日期:
2023-08-11 UTC
国别 :
美国 (US)
星等 :
--
This satellite is enrolled in the Space Conjunction Data Service (SCDS) and the current flight risk assessment level is: High Risk
Orbit Information
数据来源 国际轨道数据 AOE轨道数据
星历时间 2026-09-11T08:12:14+0800
15小时前
查看轨道信息
2026-09-05T22:00:00+0800
6天前
查看轨道信息
半长轴 6861.185km 6861.211km
偏心率 0.0001721 0.0001456
轨道倾角 43.007° 43.003°
近地点辐角 260.604° 261.466°
升交点赤经 115.402° 146.048°
平近点角 99.462° 109.094°
近地点 481.867km 482.075km
远地点 484.229km 484.073km
周期 94.267分钟 94.267分钟
每日圈数 15.275806 15.275718
Detailed Information
固有亮度:
5
最大亮度:
0.3
卫星平台:
Starlink v2.0 mini
覆盖范围:
全球
运营商:
太空探索技术公司
运营商所在国:
美国
制造商(研发单位):
太空探索技术公司
制造商所在国:
美国
使用方式:
暂无
Satellite Introduction
星链(Starlink)计划是由太空探索技术公司(SpaceX)提出的一个巨型低轨卫星互联网星座项目,计划在2019年至2024年间在太空搭建由约1.2万颗卫星组成的“星链”网络,其中1584颗将部署在地球上空550千米处的近地轨道,并从2020年开始工作。该卫星仍在工作。
2D Orbit Map
3D Orbit Map
Orbit Altitude Analysis Chart
Orbit Inclination Analysis Chart
Orbit Comprehensive Analysis Chart
View Comprehensive Chart
Conjunction Data List
Event ID Objects TCA Miss Dist (km) Collision Risk Probability Collision Risk Index (CRI) Action
CDM_260913-205705-760806-300121
2026-09-13T
20:57:43+0000
0.345 km
远距离
2.527335E-4 高风险 0.83
CDM_260913-161605-760806-215821
2026-09-13T
16:16:52+0000
0.777 km
远距离
3.51138E-5 中风险 0.66
CDM_260913-150405-760806-647021
2026-09-13T
15:04:26+0000
1.325 km
极远距离
7.739341E-6 低风险 0.53
CDM_260912-104503-628305-760821
2026-09-12T
10:45:05+0000
1.485 km
极远距离
6.817252E-6 低风险 0.52
CDM_260913-163805-760806-647021
2026-09-13T
16:38:35+0000
1.492 km
极远距离
5.215865E-6 低风险 0.49
CDM_260913-062205-760806-356521
2026-09-13T
06:22:07+0000
1.597 km
极远距离
4.322975E-6 低风险 0.48
CDM_260913-005205-760806-356521
2026-09-13T
00:52:37+0000
2.184 km
极远距离
1.858768E-6 低风险 0.4
CDM_260913-175105-760806-215821
2026-09-13T
17:51:01+0000
2.174 km
极远距离
1.406437E-6 低风险 0.38
Miss Distance Evolution Trend with All Objects
Collision Probability Evolution Trend with All Objects